Погода в Каргасоке

Погода в Каргасоке : погода сейчас, прогноз погоды и архив. Всё, что Вы хотите узнать о погоде в Каргасоке!

Хотите узнать прогноз погоды в Каргасоке? Тогда Вам сюда: Погода в Каргасоке

Поиск расширенной информации на нашем сайте:

Полезная информация: Варикозно расширенные вены.

Другие новости

Новости СМИ2

Главная страница сайта

Новости сайта

03.07.2017

Напоминаем, что на нашем специализированном сайте Метеоцентр.Азия вы можете получить высокодетализированные автоматические прогнозы погоды по пунктам России, СНГ и мира в авиационном формате (включающие направление и скорость ветра, видимость, явления погоды, количество и форму облачности, нижнюю и верхнюю границу облачности).

Рекомендуем: Вытянуть вмятину без покраски как убрать вмятину без покраски.

Погода в Каргасоке - сегодня

Время (UTC), дата Ветер
(°,м/с) 
Видим.   Явления Облачность Т
(°С)
Тd
(°С)
f(%) Тe
(°С)
Pmin
(гПа)
dP
(гПа)
Po
(мм)
O2
(г/м3)
Тmin Tmax R s Состояние
почвы
06 17.08.17 300 (СЗ) 4000 м  ливневой дождь  10/9 300 м кучево-дожд., средняя 
[Cb calv|Ac und]
+15.1 +14.1 94 +22  1014.3  0.6  756  286           
09 17.08.17 310 (СЗ) 20000 м  {ливн. осадки}  10/8 240 м кучево-дожд., средняя 
[Cb calv|Ac und]
+14.1 +12.5 90 +18  1015.4  756  287           
12 17.08.17 350 (С) 20000 м  в посл. час морось{ливн. осадки}  10/10 660 м 
[Sc]
+13.5 +11 85 +16  1016.3  0.9  757  289    +17.3     
15 17.08.17 330 (СЗ) 20000 м    10/10 800 м 
[Sc]
+12.9 +10.2 84 +14  1017.8  1.5  758  290           
18 17.08.17 290 (З) 20000 м    8/8 1440 м 
[Sc]
+11.4 +9.5 88 +13  1017.7  -0.2  758  292           
21 17.08.17 320 (СЗ) 20000 м    3/0 средняя 
[Ac trans]
+10.8 +8.9 88 +11  1017.7  758  292           
00 18.08.17 310 (СЗ) 20000 м    9/8 1500 м средняя 
[Sc|Ac trans]
+10.9 +9 88 +12  1018.4  0.7  759  292  +10.2        влажная 
03 18.08.17 320 (СЗ) 20000 м    6/0 средняя, верхняя 
[Ac trans|Ci fib]
+12.9 +9.9 82 +14  1019.1  0.8  759  290           
06 18.08.17 350 (С) 20000 м    6/3 1500 м верхняя 
[Cu med, cong|Ci fib]
+16.6 +8.3 58 +17  1019.1  759  287           
09 18.08.17 350 (С) 20000 м    3/3 1500 м 
[Cu med, cong]
+18.1 +6.9 48 +19  1019  759  286           
12 18.08.17 330 (СЗ) 20000 м    3/1 1500 м средняя 
[Sc|Ac trans]
+16.9 +6.9 52 +17  1019.1  759  287    +18.3       
15 18.08.17 320 (СЗ) 20000 м    8/5 1500 м средняя 
[Sc diur, vesp|Ac trans]
+12.3 +7.8 74 +13  1019.7  0.5  760  292           
18 18.08.17 310 (СЗ) 20000 м    3/0 средняя 
[Ac trans]
+10.1 +6.6 79 +11  1019.5  -0.2  759  294           
21 18.08.17 270 (З) 20000 м    ясно 
+5.4 +4.1 91 +6  1019.5  -0.1  759  299           
00 19.08.17 200 (Ю) 20000 м  местами туман поземный  3/0 средняя 
[Ac lent]
+3.9 +3 94 +5  1019.5  -0.1  759  301  +3.6        влажная 
03 19.08.17 290 (З) 20000 м    3/0 средняя 
[Ac trans]
+13.4 +8.9 74 +15  1019.5  0.3  759  290           
06 19.08.17 310 (СЗ) 20000 м    4/3 1000 м средняя 
[Cu med, cong|Ac trans]
+17.4 +5 44 +18  1019  -0.4  759  287           
09 19.08.17 280 (З) 20000 м    6/4 1000 м кучево-дожд., средняя, верхняя 
[Cb calv|Ac trans|Ci sp]
+18.3 +6.7 47 +19  1018.3  -0.7  759  285           
12 19.08.17 280 (З) 20000 м    8/3 1000 м средняя, верхняя 
[Cu med, cong|Ac trans|Ci sp]
+15.6 +8.8 64 +17  1018.7  0.3  759  288    +18.9       
15 19.08.17 210 (ЮЗ) 20000 м    8/0 средняя, верхняя 
[Ac trans|Ci fib]
+11.4 +9.4 87 +13  1019  0.2  759  292           
18 19.08.17 200 (Ю) 20000 м    8/0 средняя 
[Ac trans]
+8.8 +7.7 93 +9  1019.1  759  295           
21 19.08.17 250 (З) 20000 м    10/0 средняя 
[Ac und]
+11 +9.4 90 +11  1018.8  -0.2  759  292           
00 20.08.17 200 (Ю) 20000 м  {ливн. осадки}  8/3 1000 м средняя 
[Sc|Ac trans]
+9.8 +8.9 94 +10  1018.8  759  294  +8.1    0.0    влажная 
03 20.08.17 260 (З) 20000 м  {ливн. осадки}  9/3 1000 м кучево-дожд., средняя 
[Cb calv|Ac trans]
+13.1 +10.3 83 +15  1019.1  0.4  759  290           
06 20.08.17 260 (З) 20000 м  {ливн. осадки}  9/4 1000 м кучево-дожд., средняя 
[Cb calv|Ac trans]
+16.6 +11.1 70 +19  1018.9  -0.2  759  286           
Время (UTC), дата Ветер
(°,м/с) 
Видим.   Явления Облачность Т
(°С)
Тd
(°С)
f(%) Тe
(°С)
Pmin
(гПа)
dP
(гПа)
Po
(мм)
O2
(г/м3)
Тmin Tmax R s Состояние
почвы

Для получения пояснительной информации подведите курсор к названию столбца.

ПОГОДА в Каргасоке - архив

Всё, что Вы хотите узнать о погоде в Каргасоке - удобно и подробно!

Выберите нужную дату (начиная с 1 января 2015* года) и нажмите кнопку "Найти".
Будут отображены архивные сводки погоды по пункту Каргасок, начиная с указанной даты.


Отображать данные в формате CSV (для использования в таблицах Excel)


Внимание! Наш архив погоды предназначен исключительно для личного некоммерческого использования в познавательных целях. Если Вам необходимы официальные справки о состоянии погоды (для производственных, юридических, коммерческих и т.п. целей), обращайтесь в органы Росгидромета.

*Примечание: данная дата относится к архиву по метеостанциям СССР (Россия, СНГ, Балтия).
Архив по метеостанциям Зарубежной Европы и Азии (кроме Китая) хранится 10 дней, по другим регионам земного шара (Китай, Африка, Америка, Австралия, Океания) - 1 день.

Каргасок - район местоположения метеостанции


Название, широта, долгота, высота метеостанции:
Каргасок 59.1°ш. 80.9°д. 59 м над ур. моря [Российская Федерация]

Дополнительная информация

В oтличие oт бoльшинства пoгoдных сайтoв мы публикуем пoдрoбную метеoинфoрмацию в детальнoм прoфессиoнальнoм фoрмате.

Характеристики температуры и влажнoсти вoздуха измеряются на высoте 2 м в тени вдали oт зданий и деревьев.
Скoрoсть ветра измеряется на высoте 10 м (на урoвне рoста челoвека скoрoсть ветра ниже в 1.5-2 раза). Если метеoстанция нахoдится в гoрoде или в лесу, тo скoрoсть ветра занижена на 2-4 м/с пo сравнению с oткрытым местoм. Скoрoсть ветра над акватoриями крупных рек и oзёр, а также на вершинах хoлмoв на 2-5 м/с выше, чем в oбычных услoвиях.
Атмoсфернoе давление в разных тoчках местнoсти мoжет значительнo oтличаться oт давления на метеoстанции, в зависимoсти oт услoвий рельефа (при пoдъёме на 10 м давление пoнижается примернo на 1 мм рт.ст.).